Location: Street
(51.1247°N, 2.7429°W)
Time: 03:02:17
(UTC+00:00)

deb Explorer IX - Pass Details

Date: 05 December 2020
Orbit: 536 x 1104 km, 38.8° (Epoch: 20 January)

Event Time Altitude Azimuth Distance (km) Brightness Sun altitude
Rises 15:52:31 0° 244° (WSW) 3,805 ? 0.7°
Reaches altitude 10° 15:55:46 10° 233° (SW) 2,780 ? 0.3°
Maximum altitude 16:01:09 26° 180° (S) 1,733 ? -0.4°
Drops below altitude 10° 16:05:59 10° 125° (SE) 2,468 ? -1.0°
Sets 16:08:42 0° 113° (ESE) 3,301 ? -1.3°
